Hourly Weather Belize

Today, 16 April, Friday

Time Temperature Precipitation Wind Pressure Humidity
00:00 +24°C° 0 mm 6 mps 758 mmHg 95%
01:00 +23°C° 0 mm 6 mps 757 mmHg 95%
02:00 +23°C° 0 mm 5 mps 757 mmHg 95%
03:00 +23°C° 0 mm 5 mps 756 mmHg 96%
04:00 +25°C° 0 mm 5 mps 756 mmHg 94%
05:00 +25°C° 0 mm 5 mps 757 mmHg 93%
06:00 +26°C° 0 mm 5 mps 757 mmHg 87%
07:00 +27°C° 0 mm 6 mps 757 mmHg 82%
08:00 +29°C° 0 mm 6 mps 757 mmHg 78%
09:00 +30°C° 0 mm 6 mps 758 mmHg 73%
10:00 +32°C° 0 mm 6 mps 757 mmHg 66%
11:00 +34°C° 0 mm 5 mps 757 mmHg 58%
12:00 +35°C° 0 mm 5 mps 757 mmHg 51%
13:00 +35°C° 0 mm 5 mps 756 mmHg 51%
14:00 +35°C° 0 mm 4 mps 755 mmHg 51%
15:00 +35°C° 0 mm 4 mps 755 mmHg 50%
16:00 +33°C° 0 mm 4 mps 755 mmHg 60%
17:00 +30°C° 0 mm 5 mps 755 mmHg 69%
18:00 +28°C° 0 mm 5 mps 755 mmHg 79%
19:00 +27°C° 0 mm 5 mps 755 mmHg 83%
20:00 +27°C° 0 mm 6 mps 756 mmHg 87%
21:00 +26°C° 0 mm 6 mps 756 mmHg 92%
22:00 +26°C° 0 mm 6 mps 756 mmHg 92%
23:00 +26°C° 0 mm 6 mps 756 mmHg 92%

Tomorrow, 17 April, Saturday

Time Temperature Precipitation Wind Pressure Humidity
00:00 +27°C° 0 mm 6 mps 756 mmHg 92%
01:00 +27°C° 0 mm 6 mps 755 mmHg 90%
02:00 +28°C° 0 mm 6 mps 755 mmHg 87%
03:00 +28°C° 0 mm 6 mps 755 mmHg 84%
04:00 +28°C° 0 mm 6 mps 755 mmHg 82%
05:00 +29°C° 0 mm 5 mps 755 mmHg 80%
06:00 +29°C° 0 mm 4 mps 755 mmHg 78%
07:00 +30°C° 0 mm 4 mps 756 mmHg 72%
08:00 +33°C° 0 mm 4 mps 756 mmHg 67%
09:00 +34°C° 0 mm 4 mps 756 mmHg 61%
10:00 +36°C° 0 mm 4 mps 756 mmHg 55%
11:00 +37°C° 0 mm 4 mps 756 mmHg 49%
12:00 +40°C° 0 mm 5 mps 756 mmHg 44%
13:00 +39°C° 0 mm 5 mps 755 mmHg 47%
14:00 +39°C° 0 mm 5 mps 755 mmHg 51%
15:00 +37°C° 0 mm 5 mps 754 mmHg 55%
16:00 +35°C° 0 mm 5 mps 754 mmHg 63%
17:00 +33°C° 0 mm 5 mps 754 mmHg 72%
18:00 +29°C° 0 mm 6 mps 754 mmHg 80%
19:00 +29°C° 0 mm 6 mps 755 mmHg 85%
20:00 +28°C° 0 mm 6 mps 755 mmHg 90%
21:00 +27°C° 0 mm 6 mps 756 mmHg 94%
22:00 +27°C° 0 mm 6 mps 756 mmHg 94%
23:00 +28°C° 0 mm 5 mps 756 mmHg 95%

Day after tomorrow, 18 April, Sunday

Time Temperature Precipitation Wind Pressure Humidity
00:00 +28°C° 0 mm 4 mps 756 mmHg 95%
01:00 +28°C° 0 mm 4 mps 756 mmHg 95%
02:00 +28°C° 0 mm 3 mps 755 mmHg 95%
03:00 +28°C° 0 mm 2 mps 755 mmHg 95%
04:00 +28°C° 0 mm 2 mps 756 mmHg 95%
05:00 +27°C° 0 mm 2 mps 756 mmHg 96%
06:00 +27°C° 0 mm 2 mps 756 mmHg 97%
07:00 +29°C° 0 mm 2 mps 757 mmHg 88%
08:00 +31°C° 0 mm 2 mps 757 mmHg 79%
09:00 +34°C° 0 mm 2 mps 757 mmHg 70%
10:00 +35°C° 0.3 mm 2 mps 757 mmHg 63%
11:00 +37°C° 0.3 mm 2 mps 757 mmHg 55%
12:00 +38°C° 0.3 mm 3 mps 756 mmHg 48%
13:00 +36°C° 0.3 mm 3 mps 756 mmHg 60%
14:00 +33°C° 0.3 mm 4 mps 755 mmHg 72%
15:00 +30°C° 0.3 mm 4 mps 755 mmHg 84%
16:00 +29°C° 0.5 mm 4 mps 755 mmHg 88%
17:00 +28°C° 0.5 mm 4 mps 754 mmHg 91%
18:00 +27°C° 0.5 mm 4 mps 754 mmHg 95%
19:00 +26°C° 6.3 mm 4 mps 755 mmHg 96%
20:00 +26°C° 6.3 mm 4 mps 756 mmHg 98%
21:00 +25°C° 6.3 mm 3 mps 758 mmHg 99%
22:00 +25°C° 4.9 mm 4 mps 757 mmHg 99%
23:00 +25°C° 4.9 mm 4 mps 757 mmHg 98%

19 April, Monday

Time Temperature Precipitation Wind Pressure Humidity
00:00 +25°C° 4.9 mm 4 mps 757 mmHg 98%
01:00 +24°C° 0.1 mm 3 mps 757 mmHg 98%
02:00 +24°C° 0.1 mm 3 mps 757 mmHg 99%
03:00 +24°C° 0.1 mm 2 mps 757 mmHg 99%
04:00 +24°C° 0.1 mm 3 mps 757 mmHg 99%
05:00 +24°C° 0.1 mm 3 mps 758 mmHg 99%
06:00 +23°C° 0.1 mm 4 mps 758 mmHg 98%
07:00 +26°C° 0.5 mm 4 mps 758 mmHg 88%
08:00 +28°C° 0.5 mm 3 mps 759 mmHg 77%
09:00 +30°C° 0.5 mm 3 mps 759 mmHg 66%
10:00 +33°C° 0 mm 3 mps 759 mmHg 58%
11:00 +35°C° 0 mm 2 mps 758 mmHg 51%
12:00 +38°C° 0 mm 2 mps 758 mmHg 43%
13:00 +37°C° 0 mm 2 mps 757 mmHg 46%
14:00 +36°C° 0 mm 3 mps 757 mmHg 49%
15:00 +36°C° 0 mm 3 mps 756 mmHg 52%
16:00 +34°C° 0 mm 3 mps 756 mmHg 62%
17:00 +31°C° 0 mm 3 mps 756 mmHg 71%
18:00 +29°C° 0 mm 3 mps 756 mmHg 81%
19:00 +28°C° 0 mm 4 mps 757 mmHg 84%
20:00 +27°C° 0 mm 4 mps 757 mmHg 88%
21:00 +26°C° 0 mm 4 mps 758 mmHg 91%
22:00 +26°C° 0 mm 5 mps 758 mmHg 92%
23:00 +26°C° 0 mm 5 mps 758 mmHg 92%

20 April, Tuesday

Time Temperature Precipitation Wind Pressure Humidity
00:00 +26°C° 0 mm 5 mps 758 mmHg 93%
01:00 +25°C° 0 mm 4 mps 757 mmHg 94%
02:00 +25°C° 0 mm 4 mps 757 mmHg 95%
03:00 +25°C° 0 mm 3 mps 757 mmHg 97%
04:00 +25°C° 0.1 mm 3 mps 757 mmHg 97%
05:00 +25°C° 0.1 mm 3 mps 757 mmHg 97%
06:00 +25°C° 0.1 mm 3 mps 758 mmHg 97%
07:00 +28°C° 0 mm 3 mps 758 mmHg 86%
08:00 +30°C° 0 mm 3 mps 758 mmHg 75%
09:00 +33°C° 0 mm 4 mps 759 mmHg 64%
10:00 +34°C° 0 mm 4 mps 758 mmHg 59%
11:00 +36°C° 0 mm 4 mps 758 mmHg 54%
12:00 +37°C° 0 mm 4 mps 758 mmHg 49%
13:00 +36°C° 0 mm 4 mps 757 mmHg 51%
14:00 +36°C° 0 mm 4 mps 757 mmHg 53%
15:00 +35°C° 0 mm 4 mps 756 mmHg 56%
16:00 +33°C° 0 mm 5 mps 756 mmHg 65%
17:00 +30°C° 0 mm 5 mps 756 mmHg 75%
18:00 +29°C° 0 mm 6 mps 757 mmHg 84%
19:00 +28°C° 0 mm 6 mps 757 mmHg 87%
20:00 +28°C° 0 mm 6 mps 758 mmHg 89%
21:00 +27°C° 0 mm 5 mps 758 mmHg 92%
22:00 +27°C° 0 mm 5 mps 758 mmHg 94%
23:00 +27°C° 0 mm 5 mps 758 mmHg 95%

21 April, Wednesday

Time Temperature Precipitation Wind Pressure Humidity
00:00 +27°C° 0 mm 5 mps 758 mmHg 97%
01:00 +27°C° 0 mm 5 mps 758 mmHg 97%
02:00 +27°C° 0 mm 5 mps 758 mmHg 97%
03:00 +27°C° 0 mm 4 mps 757 mmHg 97%
04:00 +27°C° 0.1 mm 4 mps 758 mmHg 97%
05:00 +27°C° 0.1 mm 4 mps 758 mmHg 97%
06:00 +27°C° 0.1 mm 4 mps 758 mmHg 97%
07:00 +28°C° 0.3 mm 4 mps 759 mmHg 93%
08:00 +29°C° 0.3 mm 4 mps 759 mmHg 89%
09:00 +30°C° 0.3 mm 5 mps 759 mmHg 85%
10:00 +30°C° 0.6 mm 5 mps 759 mmHg 84%
11:00 +30°C° 0.6 mm 5 mps 759 mmHg 83%
12:00 +30°C° 0.6 mm 5 mps 759 mmHg 82%
13:00 +30°C° 0.5 mm 5 mps 758 mmHg 85%
14:00 +29°C° 0.5 mm 5 mps 758 mmHg 87%
15:00 +29°C° 0.5 mm 6 mps 758 mmHg 89%
16:00 +28°C° 0.3 mm 6 mps 758 mmHg 91%
17:00 +28°C° 0.3 mm 6 mps 758 mmHg 92%
18:00 +27°C° 0.3 mm 6 mps 758 mmHg 94%
19:00 +27°C° 0.5 mm 6 mps 759 mmHg 95%
20:00 +26°C° 0.5 mm 6 mps 760 mmHg 96%
21:00 +26°C° 0.5 mm 6 mps 760 mmHg 97%
22:00 +26°C° 0.2 mm 6 mps 760 mmHg 97%
23:00 +26°C° 0.2 mm 6 mps 760 mmHg 98%
Show more